Meath Environmental Platform

Observations for Trim Market St

Time AQI Temp °C Hum % Pres Pa CO μg/m³ H₂S μg/m³ NO μg/m³ NO₂ μg/m³ O₃ μg/m³ SO₂ μg/m³ PM1 μg/m³ PM2.5 μg/m³ PM10 μg/m³
Saturday 15 August 2026
19:05 3 23.2 40 65,164 0 1.84 1.52 21.61 55.78 0 0 2.35 2.59
19:01 3 23.3 40 65,135 0 2.48 1.51 26.29 53.09 0 0 2.36 2.6
19:00 3 23.4 40 65,131 0 4.35 1.5 26.61 54.29 0 0 2.36 2.6
18:59 3 23.4 40 65,125 0 3.14 1.51 20.23 59.22 0 0.71 2.89 3.18
18:37 3 24.5 38 65,552 0 6.77 1.36 22.88 61.11 0 0 2.46 2.7
18:36 3 24.5 37 65,550 0 5.12 1.37 15.41 64.95 0 0 2.46 2.71
18:35 3 24.6 37 65,572 0 5.25 1.36 12.61 73.89 0 0 3.53 3.88
18:34 3 24.7 37 65,570 0 5.33 1.35 17.81 67.42 0 0 3.01 3.31
18:33 3 24.7 37 65,566 0 4.35 1.36 9.83 78.95 0 0 2.48 2.73
18:32 3 24.8 37 65,586 0 5.67 1.36 9.93 86.93 0 0 2.48 2.73
18:31 3 24.9 37 65,586 0 5.27 1.33 10.75 83.06 0 0 3.02 3.33
18:30 3 25 37 65,615 0 4.5 1.31 11.14 80.73 0 0 3.03 3.33
18:29 3 25.1 36 65,625 0 3.8 1.29 11.61 80.05 0 0 2.5 2.75
18:28 3 25.1 36 65,633 0 1.57 1.29 9.51 78.34 0 0.71 3.57 3.93
18:27 3 25.2 36 65,641 0 3.74 1.28 12.19 73.32 0 0 2.51 2.76
18:26 3 25.3 36 65,653 0 2.94 1.26 11.61 76.09 0 0 2.51 2.76
18:25 3 25.4 36 65,668 0 4.45 1.25 11.37 84.95 0 0 2.51 2.77
18:24 3 25.5 36 65,686 0 4.74 1.23 12.65 76.76 0 0.71 3.05 3.36
18:21 3 25.7 36 65,672 0 3.27 1.17 13.45 77.93 0 2.85 5.73 5.87
18:18 3 25.9 36 65,719 0 6.11 1.14 19.12 71 0 0 3.6 3.96